Skip Page Navigation
NASA JPL Caltech
NASA Logo - Jet Propulsion Laboratory + View the NASA Portal
+ Center for Near-Earth Object Studies
JPL Home Earth Solar System Stars & Galaxies Technology
JPL Solar System Dynamics
BODIES ORBITS EPHEMERIDES TOOLS PHYSICAL DATA DISCOVERY FAQ SITE MAP
JPL Small-Body Database Browser
Search: [ help ]  
359524 (2010 RW83)
Classification: Main-belt Asteroid          SPK-ID: 2359524
Ephemeris | Orbit Diagram | Orbital Elements | Mission Design | Physical Parameters | Discovery Circumstances | Close-Approach Data ]

[ show orbit diagram ]
Orbital Elements at Epoch 2459000.5 (2020-May-31.0) TDB
Reference: JPL 11 (heliocentric ecliptic J2000)
 Element Value Uncertainty (1-sigma)   Units 
e .08768159733133185 6.4453e-08  
a 3.138300237150233 4.425e-08 au
q 2.863129059451603 2.2526e-07 au
i 9.792939228428136 4.8964e-06 deg
node 156.6423637323032 4.3481e-05 deg
peri 151.0554638714898 6.3843e-05 deg
M 305.6534279797261 4.329e-05 deg
tp 2459307.055996807843
(2021-Apr-02.55599681)
0.00024411 TDB
period 2030.673780301246
5.56
4.2949e-05
1.176e-07
d
yr
n .1772810598591541 3.7495e-09 deg/d
Q 3.413471414848863 4.813e-08 au
  Orbit Determination Parameters
   # obs. used (total)      157  
   data-arc span      5778 days (15.82 yr)  
   first obs. used      2004-08-23  
   last obs. used      2020-06-18  
   planetary ephem.      DE431  
   SB-pert. ephem.      SB431-N16  
   condition code      0  
   norm. resid. RMS      .47902  
   source      ORB  
   producer      Otto Matic  
   solution date      2020-Jun-24 06:36:22  

Additional Information
 Earth MOID = 1.85353 au 
 Jupiter MOID = 1.90018 au 
 T_jup = 3.183 
[ show covariance matrix ]

Ephemeris | Orbit Diagram | Orbital Elements | Mission Design | Physical Parameters | Discovery Circumstances | Close-Approach Data ]

Physical Parameter Table
Parameter Symbol Value Units Sigma Reference Notes
absolute magnitude H 15.9   n/a MPO471701  

359524 (2010 RW83)          Discovered 2008-Feb-01 by Mt. Lemmon Survey at Mount Lemmon
Reference: 20130327/Numbers.arcLast Updated: 2013-03-29

[ show close-approach data ]
Ephemeris | Orbit Diagram | Orbital Elements | Mission Design | Physical Parameters | Discovery Circumstances | Close-Approach Data ]
ABOUT SSD CREDITS/AWARDS PRIVACY/COPYRIGHT GLOSSARY LINKS
FirstGov 2020-Jul-07 14:01 UT
(server date/time)  
NASA Home Page
Site Manager:   Ryan S. Park
Webmaster  Alan B. Chamberlin